Location: Meinert
(37.9441°N, 122.0275°W)
Time: 17:53:51
(UTC+00:00)

Cosmos 1484 Rocket - Pass Details

Date: 18 April 2024
Orbit: 480 x 524 km, 97.6° (Epoch: 23 May)

Event Time Altitude Azimuth Distance (km) Brightness Sun altitude
Rises 13:00:11 0° 2° (N) 2,555 6.5 -6.0°
Reaches altitude 10° 13:02:22 10° 353° (N) 1,667 5.5 -5.6°
Maximum altitude 13:05:39 35° 287° (WNW) 796 3.3 -5.0°
Drops below altitude 10° 13:08:54 10° 220° (SW) 1,650 4.7 -4.4°
Sets 13:11:03 0° 212° (SSW) 2,526 5.7 -4.0°
